Date String (YYYY-MM-DD hh:mm:ss) UTC,Instrument flags,Ambient pressure (hPa),Sample flow (lpm),Bypass flow (lpm),Sample temperature (°C),Ambient temperature (°C),ASC tube jacket temperature (°C),LED temperature (°C),Box temperature (°C),Sample RH (%),Span deviation,Mass concentration (μg/m³),Mass concentration (μg/m³),Mass concentration (μg/m³)
DateTimeUTC,F1_M11,P_M11,Q1_M11,Q2_M11,T1_M11,T2_M11,T3_M11,T4_M11,T5_M11,U1_M11,ZSPAN_M11,X0_M11,X2_M11,X1_M11
2021-11-12 15:00:00,,0832.6,4.99,0.00,22.1,21.5,00.0,31.2,23.9,13.3,0000.0,0007.91,0002.99,0001.93
2021-11-12 15:01:00,,0832.5,5.01,0.00,22.1,21.4,00.0,31.2,23.8,13.3,0000.0,0006.66,0002.96,0001.93
2021-11-12 15:02:00,,0832.5,4.99,0.00,22.1,21.4,00.0,31.2,23.7,13.3,0000.0,0006.35,0002.94,0001.93
2021-11-12 15:03:00,,0832.6,5.00,0.00,22.1,22.1,00.0,31.2,23.9,13.3,0000.0,0006.20,0002.93,0001.95
2021-11-12 15:04:00,,0832.7,5.01,0.00,22.3,22.9,00.0,31.3,24.2,13.2,0000.0,0006.19,0002.96,0001.95
2021-11-12 15:05:00,,0832.7,4.99,0.00,22.4,23.0,00.0,31.3,24.3,13.1,0000.0,0006.10,0002.94,0001.94
2021-11-12 15:06:00,,0832.6,5.01,0.00,22.4,22.8,00.0,31.3,24.4,13.1,0000.0,0006.89,0003.02,0001.93
2021-11-12 15:07:00,,0832.6,4.99,0.00,22.4,22.6,00.0,31.3,24.4,13.1,0000.0,0006.43,0002.95,0001.93
2021-11-12 15:08:00,,0832.6,5.01,0.00,22.4,22.5,00.0,31.3,24.3,13.0,0000.0,0006.46,0002.95,0001.93
2021-11-12 15:09:00,,0832.6,4.99,0.00,22.4,22.3,00.0,31.3,24.2,13.0,0000.0,0006.99,0002.99,0001.94
2021-11-12 15:10:00,,0832.6,5.02,0.00,22.4,22.2,00.0,31.4,24.2,13.1,0000.0,0007.43,0002.96,0001.94
2021-11-12 15:11:00,,0832.6,5.00,0.00,22.4,22.1,00.0,31.4,24.3,13.1,0000.0,0007.65,0002.94,0001.95
2021-11-12 15:12:00,,0832.5,4.99,0.00,22.4,22.1,00.0,31.4,24.3,13.1,0000.0,0007.75,0002.99,0001.98
2021-11-12 15:13:00,,0832.5,5.01,0.00,22.5,22.0,00.0,31.4,24.3,13.1,0000.0,0007.68,0002.93,0001.97
2021-11-12 15:14:00,,0832.6,4.98,0.00,22.5,22.0,00.0,31.4,24.3,13.1,0000.0,0008.21,0002.95,0001.97
2021-11-12 15:15:00,,0832.7,5.00,0.00,22.5,22.0,00.0,31.4,24.3,13.1,0000.0,0008.57,0002.94,0001.99
2021-11-12 15:16:00,,0832.7,5.01,0.00,22.5,22.0,00.0,31.4,24.2,13.2,0000.0,0008.90,0002.91,0002.00
2021-11-12 15:17:00,,0832.7,5.00,0.00,22.5,22.0,00.0,31.4,24.2,13.2,0000.0,0008.32,0002.90,0002.02
2021-11-12 15:18:00,,0832.7,4.99,0.00,22.5,21.9,00.0,31.4,24.2,13.1,0000.0,0008.30,0002.94,0002.04
2021-11-12 15:19:00,,0832.7,5.00,0.00,22.5,21.9,00.0,31.4,24.2,13.1,0000.0,0008.39,0003.02,0002.07
2021-11-12 15:20:00,,0832.8,5.00,0.00,22.4,21.8,00.0,31.4,24.2,13.1,0000.0,0008.24,0003.01,0002.09
2021-11-12 15:21:00,,0832.8,5.01,0.00,22.4,21.8,00.0,31.4,24.2,13.2,0000.0,0007.93,0003.03,0002.11
2021-11-12 15:22:00,,0832.7,4.99,0.00,22.5,21.8,00.0,31.4,24.2,13.2,0000.0,0007.89,0003.07,0002.12
2021-11-12 15:23:00,,0832.7,5.00,0.00,22.5,21.9,00.0,31.4,24.2,13.2,0000.0,0007.89,0003.08,0002.13
2021-11-12 15:24:00,,0832.8,5.00,0.00,22.5,21.9,00.0,31.4,24.2,13.1,0000.0,0007.87,0003.11,0002.17
2021-11-12 15:25:00,,0832.7,4.99,0.00,22.4,21.9,00.0,31.4,24.2,13.1,0000.0,0007.48,0003.13,0002.19
2021-11-12 15:26:00,,0832.7,5.00,0.00,22.4,21.8,00.0,31.4,24.2,13.2,0000.0,0007.35,0003.13,0002.22
2021-11-12 15:27:00,,0832.7,5.00,0.00,22.4,21.9,00.0,31.4,24.2,13.2,0000.0,0007.44,0003.20,0002.25
2021-11-12 15:28:00,,0832.7,5.00,0.00,22.4,21.9,00.0,31.4,24.2,13.1,0000.0,0007.98,0003.20,0002.25
2021-11-12 15:29:00,,0832.8,4.99,0.00,22.4,21.8,00.0,31.4,24.1,13.1,0000.0,0008.40,0003.21,0002.27
2021-11-12 15:30:00,,0832.7,5.01,0.00,22.4,21.8,00.0,31.4,24.1,13.1,0000.0,0008.68,0003.16,0002.27
2021-11-12 15:31:00,,0832.7,5.00,0.00,22.4,21.8,00.0,31.4,24.1,13.1,0000.0,0009.10,0003.18,0002.28
2021-11-12 15:32:00,,0832.6,5.00,0.00,22.4,21.8,00.0,31.4,24.1,13.2,0000.0,0009.21,0003.17,0002.28
2021-11-12 15:33:00,,0832.7,4.99,0.00,22.4,21.8,00.0,31.4,24.1,13.2,0000.0,0009.09,0003.20,0002.30
2021-11-12 15:34:00,,0832.8,5.01,0.00,22.4,21.7,00.0,31.4,24.1,13.2,0000.0,0009.02,0003.17,0002.30
2021-11-12 15:35:00,,0832.8,5.00,0.00,22.3,21.7,00.0,31.4,24.1,13.3,0000.0,0009.13,0003.19,0002.32
2021-11-12 15:36:00,,0832.8,4.99,0.00,22.3,21.7,00.0,31.4,24.1,13.3,0000.0,0009.16,0003.21,0002.33
2021-11-12 15:37:00,,0832.7,5.01,0.00,22.3,21.7,00.0,31.4,24.1,13.2,0000.0,0009.13,0003.23,0002.34
2021-11-12 15:38:00,,0832.8,4.99,0.00,22.3,21.7,00.0,31.4,24.1,13.3,0000.0,0008.62,0003.24,0002.34
2021-11-12 15:39:00,,0832.8,5.00,0.00,22.3,21.7,00.0,31.4,24.1,13.3,0000.0,0008.27,0003.25,0002.36
2021-11-12 15:40:00,,0832.7,4.99,0.00,22.3,21.7,00.0,31.4,24.0,13.2,0000.0,0008.35,0003.24,0002.36
2021-11-12 15:41:00,,0832.7,5.00,0.00,22.3,21.7,00.0,31.4,24.0,13.3,0000.0,0009.05,0003.28,0002.37
2021-11-12 15:42:00,,0832.8,5.01,0.00,22.3,21.7,00.0,31.4,24.0,13.3,0000.0,0008.62,0003.30,0002.38
2021-11-12 15:43:00,,0832.8,4.99,0.00,22.3,21.7,00.0,31.4,24.0,13.2,0000.0,0008.37,0003.28,0002.39
2021-11-12 15:44:00,,0832.8,5.01,0.00,22.3,21.6,00.0,31.4,24.0,13.2,0000.0,0008.42,0003.28,0002.40
2021-11-12 15:45:00,,0832.7,5.00,0.00,22.3,21.6,00.0,31.3,24.0,13.3,0000.0,0008.46,0003.30,0002.43
2021-11-12 15:46:00,,0832.8,4.99,0.00,22.3,21.6,00.0,31.3,24.0,13.3,0000.0,0009.08,0003.32,0002.43
2021-11-12 15:47:00,,0832.8,5.02,0.00,22.2,21.6,00.0,31.3,24.0,13.3,0000.0,0009.58,0003.33,0002.44
2021-11-12 15:48:00,,0832.8,4.99,0.00,22.2,21.6,00.0,31.3,24.0,13.3,0000.0,0010.08,0003.36,0002.45
2021-11-12 15:49:00,,0832.8,5.00,0.00,22.2,21.6,00.0,31.3,24.0,13.2,0000.0,0010.53,0003.32,0002.44
2021-11-12 15:50:00,,0832.7,5.00,0.00,22.2,21.6,00.0,31.3,23.9,13.2,0000.0,0011.02,0003.32,0002.43
2021-11-12 15:51:00,,0832.8,4.99,0.00,22.2,21.6,00.0,31.3,23.9,13.3,0000.0,0010.81,0003.31,0002.44
2021-11-12 15:52:00,,0832.8,5.01,0.00,22.2,21.6,00.0,31.3,23.9,13.3,0000.0,0010.55,0003.30,0002.46
2021-11-12 15:53:00,,0832.7,4.99,0.00,22.2,21.6,00.0,31.3,23.9,13.4,0000.0,0010.82,0003.29,0002.45
2021-11-12 15:54:00,,0832.8,5.01,0.00,22.2,21.6,00.0,31.3,24.0,13.4,0000.0,0010.88,0003.31,0002.45
2021-11-12 15:55:00,,0832.8,4.99,0.00,22.2,21.6,00.0,31.3,24.0,13.3,0000.0,0010.92,0003.33,0002.46
2021-11-12 15:56:00,,0832.7,4.99,0.00,22.2,21.6,00.0,31.3,24.0,13.4,0000.0,0010.95,0003.33,0002.47
2021-11-12 15:57:00,,0832.8,5.01,0.00,22.2,21.6,00.0,31.3,23.9,13.4,0000.0,0010.61,0003.35,0002.47
2021-11-12 15:58:00,,0832.7,5.01,0.00,22.2,21.6,00.0,31.3,23.9,13.4,0000.0,0010.18,0003.35,0002.48
2021-11-12 15:59:00,,0832.7,4.99,0.00,22.2,21.6,00.0,31.3,24.0,13.5,0000.0,0009.72,0003.35,0002.47
